SL-8 R/B

Satellite information

Favourite Embed

Satellite Type and Status

ROCKET BODYIN ORBIT

Key statistics

Satellite SL-8 R/B at a glance.

Uptime

11217

Days in orbit

Revolutions

≈ 14.3

Per day

Orbit

LEO

Low Earth Orbit

Inclination

74.0

Latest

Satellite identification and parameters

Extended collection of information and parameters for SL-8 R/B.

Object identification

Identified? True

Debris? False

Object name: SL-8 R/B

International designator: 1994-083B

Object number (NORAD): 23432

Object ID (CCSDS): 23432

Country: COMMONWEALTH OF INDEPENDENT STATES (CIS)

Current information (Y/N): Y

RCS size: LARGE

Orbital parameters

Period: 100.398 minutes

Inclination: 74.0315 deg

SMA: 7155.542 km

Apoapsis: 780.558 km

Periapsis: 774.256 km

RAAN: 210.1893 deg

Eccentricy: 0.0004403

Argument of periapsis: 42.9394 deg

Mean anomaly: 328.0773 deg

Mean motion: 14.34296569 rev/day

Mean motion (dot): 0.00000481 rev/day2

B* drag term: 0.00018071785 1/REarth

Two-line elements (TLE)

Creation date: Sept. 3, 2025, 10:15 a.m.

Reference frame: TEME

Reference center: EARTH

Epoch: Sept. 3, 2025, 4:01 a.m. UTC

TLE line 0: 0 SL-8 R/B

TLE line 1: 1 23432U 94083B 25246.16792887 .00000481 00000-0 18072-3 0 9999

TLE line 2: 2 23432 74.0315 210.1893 0004403 42.9394 328.0773 14.34296569606003

Live tracking on map

Real-time ground track for satellite SL-8 R/B.

In-orbit conjunctions

A list of the most updated potential collisions computed for object SL-8 R/B.

Target Orbit TCA Probability of collision Miss distance Type
CZ-6A DEB SSO 2025-03-16 11:21:57 0.0007037831 72.0 (m) DEBRIS
CZ-6A DEB LEO 2025-03-03 11:58:10 0.002935382 128.0 (m) DEBRIS
SL-8 R/B LEO 2025-01-28 05:49:18 0.0001766038 787.0 (m) ROCKET BODY
NOAA 6 SSO 2024-10-24 07:08:36 0.0006875036 309.0 (m) PAYLOAD
COSMOS 2251 DEB LEO 2024-08-12 19:26:53 0.0001156755 348.0 (m) DEBRIS

Associated space launch

Military communications satellite

SL-8 R/B was lifted into orbit during the mission ‘Kosmos-3M | Strela-2M 52’, on board a Kosmos-3M space rocket.

The launch took place on Dec. 20, 1994, 5:11 a.m. from 132/1 (132L).

For more information about the launch, click the button.

Launch to space Kosmos-3M | Strela-2M 52
Kosmos-3M | Strela-2M 52

Agency: N/A

Status: Launch Successful

Launch date: Dec. 20, 1994, 5:11 a.m. UTC

Rocket: Kosmos-3M

Launch pad: 132/1 (132L)

Location: Plesetsk Cosmodrome, Russian Federation

...

Latest news about this satellite

There are no fresh news available about this satellite. Check back as we update our databases every day.


Newsletter sign-up

Weekly statistics, charts and insights to help you stay on top of the space industry.